This is the latest recevied weather packets stored in our database for station/object IU3NMQ-10. If no packets are shown the sender has not sent any weather packets the latest 10 day(s).
| Time | Temp. | Humidity | Pressure | Rain* | Wind** | Luminosity | Snow |
|---|---|---|---|---|---|---|---|
| 1777929397 | 18.89° C | 60% | 1013.1 hPa | - | - | - | - |
| 1777928496 | 19.44° C | 60% | 1013.2 hPa | - | - | - | - |
| 1777927596 | 19.44° C | 58% | 1013.1 hPa | - | - | - | - |
| 1777926696 | 20° C | 57% | 1013.3 hPa | - | - | - | - |
| 1777925799 | 20° C | 58% | 1013.1 hPa | - | - | - | - |
| 1777924896 | 19.44° C | 58% | 1013.1 hPa | - | - | - | - |
| 1777923996 | 20° C | 57% | 1013.1 hPa | - | - | - | - |
| 1777923096 | 20.56° C | 57% | 1012.9 hPa | - | - | - | - |
| 1777922196 | 20.56° C | 55% | 1012.7 hPa | - | - | - | - |
| 1777921296 | 21.11° C | 53% | 1012.6 hPa | - | - | - | - |
| 1777920395 | 21.67° C | 52% | 1012.5 hPa | - | - | - | - |
| 1777919495 | 22.22° C | 51% | 1012.4 hPa | - | - | - | - |
| 1777918595 | 22.22° C | 50% | 1012.3 hPa | - | - | - | - |
| 1777917695 | 23.33° C | 47% | 1012.1 hPa | - | - | - | - |
| 1777916795 | 23.89° C | 46% | 1011.9 hPa | - | - | - | - |
| 1777915898 | 23.89° C | 48% | 1011.9 hPa | - | - | - | - |
| 1777914998 | 24.44° C | 46% | 1011.8 hPa | - | - | - | - |
| 1777914208 | 25° C | 44% | 1011.8 hPa | - | - | - | - |
| 1777914050 | 25° C | 44% | 1011.8 hPa | - | - | - | - |
| 1777913150 | 25° C | 44% | 1011.9 hPa | - | - | - | - |
| 1777912250 | 25.56° C | 45% | 1011.8 hPa | - | - | - | - |
| 1777911394 | 26.11° C | 44% | 1011.8 hPa | - | - | - | - |
| 1777911347 | 26.11° C | 44% | 1011.8 hPa | - | - | - | - |
| 1777911104 | 26.11° C | 45% | 1011.7 hPa | - | - | - | - |
| 1777910204 | 26.67° C | 43% | 1011.8 hPa | - | - | - | - |
* Rain since midnight (hover to see other rain measurements)
** Current wind speed in m/s (hover to see current wind gust speed)